Airfield :
LOGIN :

Register | Disclaimer

   EN    FR    IT 

 










Legend :    VFR   Marginal VFR   IFR   Intensive IFR   Very Intensive IFR
Visi :
Ceiling :
>= 8 km
>= 3000ft
5 to 8 km
1000 to 3000 ft
1500m to 5 km
500 to 1000 ft
800 to 1500m
200 to 500 ft
< 800m
< 200 ft
Symbols :   Thunderstorms  Fog  Heavy snow  Heavy precipitations  Wind > 20 kt
SIGMETs :     Misc.  Thunderstorms  Icing  Turbulence  Mountain Waves  Volcanic Ashes







- Airport Elevation : 353 ft
- IATA code : ZAG


LDZA - Zagreb Pleso

CURRENT METAR :
  • 272330Z 29003KT CAVOK 18/15 Q1018 NOSIG

EXPIRED METARs :
  • 272300Z 25002KT CAVOK 18/16 Q1018 NOSIG
  • 272230Z 26002KT CAVOK 19/16 Q1018 NOSIG
  • 272200Z VRB02KT CAVOK 19/16 Q1018 NOSIG
  • 272130Z VRB01KT CAVOK 20/16 Q1019 NOSIG
  • 272100Z VRB01KT CAVOK 20/16 Q1019 NOSIG
  • 272030Z VRB02KT CAVOK 21/17 Q1018 NOSIG

TAF TAF LDZA
Valid from the 27 at 18:00 until the 28 at 18:00 UTC


271725Z 2718/2818 07005KT 9999 SCT045 TX28/2814Z TN15/2803Z
PROB30
TEMPO 2718/2721 TSRA FEW030CB BKN035
PROB30
TEMPO 2815/2818 TSRA FEW030CB SCT035
ATIS : +385 1 6-259-214
No reported NOTAMs for that airfield.



MET'MAP, your aeronautical weather chart ! - Copyright ORBIFLY December 2007 - Disclaimer

ORBIFLY MET'MAP TEAM :

Programming & Development : Alexandra Zaïnal
Concept & Development : Baudouin d'Aumeries
Co-Development & Prog : Marc-Olivier Méhu
Technical & hardware support : Manuel Goepfert

Contact : metmap@orbifly.com




SOURCES & CREDITS :

   NOAA